Location: ????????
(55.6333°N, 37.7000°E)
Time: 01:50:04
(UTC+00:00)

NOSS 3-2 (A) - Pass Details

Date: 19 May 2025
Orbit: 674 x 1530 km, 63.4° (Epoch: 29 May)

Event Time Altitude Azimuth Distance (km) Brightness Sun altitude
Rises 20:13:45 0° 301° (WNW) 3,596 7.3 -12.9°
Reaches altitude 10° 20:16:07 10° 306° (NW) 2,761 6.7 -13.0°
Maximum altitude 20:22:40 61° 26° (NNE) 1,295 4.4 -13.2°
Drops below altitude 10° 20:30:45 10° 107° (ESE) 3,380 6.0 -13.5°
Sets 20:33:56 0° 111° (ESE) 4,456 6.6 -13.6°
